Regional Weather Roundup
Issued by NWS Charleston, SC

Current Version | Previous Version | Text Only | Print | Product List | Glossary Off
Versions: 1 2 3 4 5 6 7 8 9 10 11 12 13 14 15 16 17 18 19 20 21 22 23 24 25 26 27 28 29 30 31 32 33 34 35 36 37 38 39 40 41 42 43 44 45 46 47 48 49 50

000
ASUS42 KCHS 260226
RWRCHS

REGIONAL WEATHER ROUNDUP
NATIONAL WEATHER SERVICE CHARLESTON SC
900 PM EST SAT FEB 25 2017

NOTE: "FAIR" INDICATES FEW OR NO CLOUDS BELOW 12,000 FEET WITH NO
SIGNIFICANT WEATHER AND/OR OBSTRUCTIONS TO VISIBILITY.

NOT ALL STATIONS ARE QUALITY CONTROLLED. USE DATA WITH CAUTION...
ESPECIALLY DEWPOINT OBSERVATIONS.

SCZ027-030-031-034>040-042>050-260300-
...SOUTHEAST SOUTH CAROLINA...

CITY           SKY/WX    TMP DP  RH WIND       PRES   REMARKS
N CHARLESTON   CLEAR     68  29  23 W12       29.84R
WATERFRONT PRK   N/A     66  60  81 VRB3      29.81R
MOUNT PLEASANT LGT RAIN  68  37  32 W8        29.85R
JOHNS ISLAND   FAIR      64  50  59 W6        29.86R
PINOPOLIS        N/A     70  39  32 W15       29.73R
MONCKS CORNER  FAIR      64  19  17 NW5       29.85R
SUMMERVILLE    FAIR      64  27  24 W6        29.87R
BEAUFORT MCAS  CLEAR     67  35  30 W9        29.87R
BEAUFORT ARPT  FAIR      68  32  26 W12       29.88R
HILTON HEAD IS CLEAR     70  28  21 W8        29.89R
WALTERBORO     CLEAR     63  23  22 NW13G21   29.88R
ALLENDALE      FAIR      63  21  20 VRB7      29.89R

...SOUTHERN MIDLANDS AND PEE DEE...

CITY           SKY/WX    TMP DP  RH WIND       PRES   REMARKS
GEORGETOWN     FAIR      64  37  36 W9        29.83R
KINGSTREE      FAIR      63  14  15 W12       29.84R
ORANGEBURG     CLEAR     62  20  19 W14       29.87R
BARNWELL       FAIR      63  19  19 W9        29.91R
AIKEN          FAIR      55  19  24 W12       29.94R
MANNING        FAIR      63  19  19 MISG      29.85R
COLUMBIA       CLEAR     61  19  19 W15       29.86R
SUMTER         CLEAR     62  18  18 W13       29.83R
FLORENCE       CLEAR     64  28  25 W12G21    29.81R
MYRTLE BEACH   CLEAR     70  54  56 W12       29.79R
N MYRTLE BEACH CLEAR     67  56  67 W9        29.77R

$$

GAZ063-065-086>088-099>101-113>116-118-119-134>141-150-260300-
...SOUTHEAST GEORGIA...

CITY           SKY/WX    TMP DP  RH WIND       PRES   REMARKS
SAVANNAH ARPT  CLEAR     65  30  27 W9        29.89R
HUNTER AAF     CLEAR     60  40  49 W6        29.86R
FORT STEWART   CLEAR     65  30  26 W5        29.88R
STATESBORO     CLEAR     62  30  30 NW10      29.92R
SYLVANIA       CLEAR    N/A N/A N/A NW9       29.92R
CLAXTON        FAIR      61  34  36 W6        29.93R

...CSRA...CENTRAL AND FAR SOUTHEAST GEORGIA...

CITY           SKY/WX    TMP DP  RH WIND       PRES   REMARKS
THOMSON        CLEAR     57  25  29 W8        29.99R
AUGUSTA-BUSH   CLEAR     62  17  17 NW14      29.91R
AUGUSTA-DANIEL CLEAR     60  15  17 W10G18    29.92R
SWAINSBORO     FAIR      59  25  27 NW9       29.95R
VIDALIA        CLEAR     63  34  34 NW10G17   29.94R
EASTMAN        FAIR      61 -35   1 NW7       30.00R
HAZLEHURST     FAIR      63  29  27 NW5       29.94R
ALMA           CLEAR     64  28  25 W7        29.93R
WAYCROSS       CLEAR     65  35  33 W5        29.95R
JESUP          FAIR      64  30  27 NW7       29.93R
BAXLEY         FAIR      63  36  36 NW5       29.94R
BRUNSWICK      CLEAR     66  41  39 W7        29.92R
SAINT SIMONS   CLEAR     69  44  40 W6        29.90R

$$

SCZ027-028-034-036>038-045-046-048>050-GAZ119-141-260300-
...LAKE AND SUPPLEMENTAL COASTAL OBSERVATIONS...

STATION/POSITION TIME  TEMP    WIND        PRES    WAVE   SWELL
                       AIR SEA DIR/SP/G            HT/PER HT/PER/DIR
                 (UTC) (F)     (DEG/KT/KT) (MB)    (FT/S) (FT/S/D)
WINYAH BAY       0130   66     240/  6     1008.0R
LAKE MURRAY      0130   62     250/ 14/ 18 1010.5R
ACE BASIN NERRS  0145   68     270/  3     1010.0R
FORT PULASKI     0200   69 64  280/  9/ 11 1012.0
SAPELO ISLAND    0200   67     290/  6     1012.0

$$

ANZ835-935-AMZ111-154-330-350-352-354-370-450-454-472-260300-
...C-MAN AND BUOY OBSERVATIONS...

STATION/POSITION TIME  TEMP    WIND        PRES    WAVE   SWELL
                       AIR SEA DIR/SP/G            HT/PER HT/PER/DIR
                 (UTC) (F)     (DEG/KT/KT) (MB)    (FT/S) (FT/S/D)
BUOY 41004       0150   71 70  230/ 17/ 21 1009.0R   6/11   5/120/11
BUOY 41008       0150   68 63  260/ 14/ 16 1011.4R   3/11   3/ 70/11
FOLLY BEACH CMAN 0200   64     240/  5/  7 1011.0R
CAPERS NEARSHORE 0108   64 62  240/ 14/ 19 1008.8R
FRIPP NEARSHORE  0208   69 62  300/ 14/ 17 1011.0R


STATION/POSITION TIME  TEMP    WIND        PRES    WAVE   SWELL
                       AIR SEA DIR/SP/G            HT/PER HT/PER/DIR
                 (UTC) (F)     (DEG/KT/KT) (MB)    (FT/S) (FT/S/D)
5E ST. MARYS GA  0200      66                N/A     3/11   2/ 80/11
FRYING PAN BUOY  0210   71 71  230/ 23/ 29 1008.1
BUOY 41025       0150   72 75  240/ 29/ 35 1004.4R  10/10   5/140/10
CAPE LOOKOUT NC  0200   66     230/ 16/ 23 1006.0R
BUOY 41002       0150   72 71  220/ 14/ 19 1010.8R   6/ 9   5/ 70/ 9
BUOY 41010       NOT AVBL
ST AUGUSTINE FL  0200   71 67  260/  9/ 12 1013.9R


$$




USA.gov is the U.S. government's official web portal to all federal, state and local government web resources and services.